This is the latest recevied weather packets stored in our database for station/object IZ1UKX-13. If no packets are shown the sender has not sent any weather packets the latest 10 day(s).
| Time | Temp. | Humidity | Pressure | Rain* | Wind** | Luminosity | Snow |
|---|---|---|---|---|---|---|---|
| 1778219179 | 10° C | 96% | 1024.9 hPa | 0 mm | - | 0 W/m² | - |
| 1778218879 | 9.44° C | 97% | 1025.4 hPa | 0 mm | - | 0 W/m² | - |
| 1778218580 | 8.89° C | 97% | 1025.4 hPa | 0 mm | - | 0 W/m² | - |
| 1778218280 | 8.33° C | 97% | 1025.4 hPa | 0 mm | - | 0 W/m² | - |
| 1778217980 | 8.33° C | 97% | 1025.4 hPa | 0 mm | - | 0 W/m² | - |
| 1778217680 | 7.78° C | 97% | 1025.4 hPa | 0 mm | - | 0 W/m² | - |
| 1778217380 | 7.78° C | 97% | 1025.8 hPa | 0 mm | - | 0 W/m² | - |
| 1778217079 | 7.22° C | 97% | 1025.8 hPa | 0 mm | - | 0 W/m² | - |
| 1778216780 | 7.22° C | 97% | 1025.8 hPa | 0 mm | - | 0 W/m² | - |
| 1778216480 | 6.67° C | 97% | 1025.8 hPa | 0 mm | - | 0 W/m² | - |
| 1778216180 | 6.67° C | 97% | 1025.8 hPa | 0 mm | - | 0 W/m² | - |
| 1778215880 | 6.67° C | 97% | 1023.8 hPa | 0 mm | - | 0 W/m² | - |
| 1778215590 | 6.67° C | 97% | 1025.8 hPa | 0 mm | - | 0 W/m² | - |
| 1778215289 | 6.67° C | 97% | 1025.8 hPa | 0 mm | - | 0 W/m² | - |
| 1778214989 | 6.11° C | 97% | 1025.8 hPa | 0 mm | - | 0 W/m² | - |
| 1778214689 | 6.11° C | 97% | 1025.8 hPa | 0 mm | - | 0 W/m² | - |
| 1778214389 | 5.56° C | 97% | 1026.2 hPa | 0 mm | - | 0 W/m² | - |
| 1778214089 | 6.11° C | 97% | 1026.2 hPa | 0 mm | - | 0 W/m² | - |
| 1778213789 | 6.11° C | 97% | 1026.2 hPa | 0 mm | - | 0 W/m² | - |
| 1778213489 | 5.56° C | 97% | 1026.2 hPa | 0 mm | - | 0 W/m² | - |
| 1778213189 | 5.56° C | 97% | 1026.2 hPa | 0 mm | - | 0 W/m² | - |
| 1778212889 | 5.56° C | 97% | 1026.2 hPa | 0 mm | - | 0 W/m² | - |
| 1778212589 | 5.56° C | 97% | 1026.2 hPa | 0 mm | - | 0 W/m² | - |
| 1778212289 | 5.56° C | 97% | 1026.2 hPa | 0 mm | - | 0 W/m² | - |
| 1778211989 | 5.56° C | 97% | 1026.2 hPa | 0 mm | - | 0 W/m² | - |
* Rain latest hour (hover to see other rain measurements)
** Current wind speed in m/s (hover to see current wind gust speed)